Time,TemperatureF,DewpointF,PressureIn,WindDirection,WindDirectionDegrees,WindSpeedMPH,WindSpeedGustMPH,Humidity,HourlyPrecipIn,Conditions,Clouds,dailyrainin,SoftwareType,DateUTC
2013-01-27 00:00:00,16.1,9.9,27.55,NW,324,0.0,6.0,76,0.00,,,-99.99,Weather View 32 v60,2013-01-27 05:00:00,
2013-01-27 00:40:00,16.1,9.9,27.56,NW,306,1.0,5.0,76,0.00,,,-99.99,Weather View 32 v60,2013-01-27 05:40:00,
2013-01-27 01:00:00,16.1,9.9,27.57,NW,312,1.0,4.0,76,0.00,,,-99.99,Weather View 32 v60,2013-01-27 06:00:00,
2013-01-27 01:40:00,16.1,8.4,27.58,NW,307,1.0,7.0,71,0.00,,,-99.99,Weather View 32 v60,2013-01-27 06:40:00,
2013-01-27 02:00:00,15.9,8.2,27.58,North,358,2.0,7.0,71,0.00,,,-99.99,Weather View 32 v60,2013-01-27 07:00:00,
2013-01-27 02:40:00,15.8,8.4,27.57,North,11,0.0,6.0,72,0.00,,,-99.99,Weather View 32 v60,2013-01-27 07:40:00,
2013-01-27 03:00:00,15.8,8.4,27.57,North,0,1.0,5.0,72,0.00,,,-99.99,Weather View 32 v60,2013-01-27 08:00:00,
2013-01-27 03:40:00,15.9,8.8,27.57,North,4,0.0,4.0,73,0.00,,,-99.99,Weather View 32 v60,2013-01-27 08:40:00,
2013-01-27 04:00:00,16.3,9.8,27.58,North,4,0.0,4.0,75,0.00,,,-99.99,Weather View 32 v60,2013-01-27 09:00:00,
2013-01-27 04:40:00,15.9,9.4,27.58,North,4,0.0,1.0,75,0.00,,,-99.99,Weather View 32 v60,2013-01-27 09:40:00,
2013-01-27 05:00:00,15.6,9.4,27.59,North,4,0.0,2.0,76,0.00,,,-99.99,Weather View 32 v60,2013-01-27 10:00:00,
2013-01-27 05:40:00,14.6,9.0,27.59,North,3,0.0,2.0,78,0.00,,,-99.99,Weather View 32 v60,2013-01-27 10:40:00,
2013-01-27 06:00:00,13.3,8.3,27.60,North,4,2.0,2.0,80,0.00,,,-99.99,Weather View 32 v60,2013-01-27 11:00:00,
2013-01-27 06:40:00,12.1,7.4,27.62,ESE,122,0.0,3.0,81,0.00,,,-99.99,Weather View 32 v60,2013-01-27 11:40:00,
2013-01-27 07:00:00,11.4,6.7,27.62,ESE,122,0.0,3.0,81,0.00,,,-99.99,Weather View 32 v60,2013-01-27 12:00:00,
2013-01-27 07:40:00,15.2,9.6,27.63,NE,48,1.0,4.0,78,0.00,,,-99.99,Weather View 32 v60,2013-01-27 12:40:00,
2013-01-27 08:00:00,19.0,10.2,27.64,SSE,153,0.0,4.0,68,0.00,,,-99.99,Weather View 32 v60,2013-01-27 13:00:00,
2013-01-27 08:40:00,27.7,13.2,27.63,ESE,102,0.0,4.0,54,0.00,,,-99.99,Weather View 32 v60,2013-01-27 13:40:00,
2013-01-27 09:00:00,29.6,14.6,27.64,ENE,63,0.0,4.0,53,0.00,,,-99.99,Weather View 32 v60,2013-01-27 14:00:00,
2013-01-27 09:40:00,28.3,12.5,27.64,SSW,205,3.0,6.0,51,0.00,,,-99.99,Weather View 32 v60,2013-01-27 14:40:00,
2013-01-27 10:00:00,26.9,12.5,27.64,SSW,204,3.0,12.0,54,0.00,,,-99.99,Weather View 32 v60,2013-01-27 15:00:00,
2013-01-27 10:40:00,29.2,13.3,27.62,South,171,4.0,12.0,51,0.00,,,-99.99,Weather View 32 v60,2013-01-27 15:40:00,
2013-01-27 11:00:00,29.8,13.0,27.61,SSW,194,6.0,10.0,49,0.00,,,-99.99,Weather View 32 v60,2013-01-27 16:00:00,
2013-01-27 11:40:00,32.0,13.0,27.60,SW,235,4.0,8.0,45,0.00,,,-99.99,Weather View 32 v60,2013-01-27 16:40:00,
2013-01-27 12:00:00,36.5,12.7,27.60,South,186,3.0,8.0,37,0.00,,,-99.99,Weather View 32 v60,2013-01-27 17:00:00,
2013-01-27 12:40:00,41.2,14.2,27.58,SSW,210,2.0,7.0,33,0.00,,,-99.99,Weather View 32 v60,2013-01-27 17:40:00,
2013-01-27 13:00:00,38.9,12.2,27.58,South,181,4.0,7.0,33,0.00,,,-99.99,Weather View 32 v60,2013-01-27 18:00:00,
2013-01-27 13:40:00,38.3,13.7,27.58,South,170,2.0,6.0,36,0.00,,,-99.99,Weather View 32 v60,2013-01-27 18:40:00,
2013-01-27 14:00:00,37.4,14.7,27.58,South,174,1.0,6.0,39,0.00,,,-99.99,Weather View 32 v60,2013-01-27 19:00:00,
2013-01-27 14:40:00,37.3,15.7,27.57,SSW,212,2.0,4.0,41,0.00,,,-99.99,Weather View 32 v60,2013-01-27 19:40:00,
2013-01-27 15:00:00,33.5,14.9,27.57,SSW,210,0.0,5.0,46,0.00,,,-99.99,Weather View 32 v60,2013-01-27 20:00:00,
2013-01-27 15:40:00,29.9,14.4,27.57,SSW,198,5.0,8.0,52,0.00,,,-99.99,Weather View 32 v60,2013-01-27 20:40:00,
2013-01-27 16:00:00,29.0,14.8,27.57,South,170,4.0,9.0,55,0.00,,,-99.99,Weather View 32 v60,2013-01-27 21:00:00,
2013-01-27 16:40:00,27.4,14.9,27.56,SSW,193,0.0,9.0,59,0.00,,,-99.99,Weather View 32 v60,2013-01-27 21:40:00,
2013-01-27 17:00:00,27.5,15.4,27.56,SSW,197,0.0,8.0,60,0.00,,,-99.99,Weather View 32 v60,2013-01-27 22:00:00,
2013-01-27 17:40:00,26.8,15.1,27.56,SSW,203,0.0,6.0,61,0.00,,,-99.99,Weather View 32 v60,2013-01-27 22:40:00,
2013-01-27 18:00:00,27.5,15.8,27.55,NNE,20,1.0,6.0,61,0.00,,,-99.99,Weather View 32 v60,2013-01-27 23:00:00,
2013-01-27 18:40:00,26.8,15.5,27.55,ENE,78,2.0,5.0,62,0.00,,,-99.99,Weather View 32 v60,2013-01-27 23:40:00,
2013-01-27 19:00:00,27.4,16.1,27.55,SSW,208,2.0,6.0,62,0.00,,,-99.99,Weather View 32 v60,2013-01-28 00:00:00,
2013-01-27 19:40:00,27.9,16.6,27.56,North,351,2.0,6.0,62,0.00,,,-99.99,Weather View 32 v60,2013-01-28 00:40:00,
2013-01-27 20:00:00,27.5,16.2,27.55,SSW,206,0.0,6.0,62,0.00,,,-99.99,Weather View 32 v60,2013-01-28 01:00:00,
2013-01-27 20:20:00,27.7,16.4,27.55,East,90,1.0,6.0,62,0.00,,,-99.99,Weather View 32 v60,2013-01-28 01:20:00,
2013-01-27 20:40:00,27.7,16.4,27.54,East,84,2.0,6.0,62,0.00,,,-99.99,Weather View 32 v60,2013-01-28 01:40:00,
2013-01-27 21:00:00,27.6,16.6,27.54,NE,54,1.0,5.0,63,0.00,,,-99.99,Weather View 32 v60,2013-01-28 02:00:00,
2013-01-27 21:40:00,27.8,16.8,27.55,East,93,1.0,5.0,63,0.00,,,-99.99,Weather View 32 v60,2013-01-28 02:40:00,
2013-01-27 22:00:00,27.9,16.9,27.54,East,99,0.0,4.0,63,0.00,,,-99.99,Weather View 32 v60,2013-01-28 03:00:00,
2013-01-27 22:40:00,27.7,16.7,27.53,SSE,162,1.0,5.0,63,0.00,,,-99.99,Weather View 32 v60,2013-01-28 03:40:00,
2013-01-27 23:00:00,27.7,16.7,27.53,SSE,164,2.0,7.0,63,0.00,,,-99.99,Weather View 32 v60,2013-01-28 04:00:00,
2013-01-27 23:40:00,27.7,16.7,27.51,ESE,114,2.0,7.0,63,0.00,,,-99.99,Weather View 32 v60,2013-01-28 04:40:00,